GW3576 Weather Reports


time (UTC)temp
F
wind
direction
speed
knots
gust
knots
rain 1hr
in
rain 24hr
in
rain mn
in
humidity
%
barometer
mb
20260504035019 66 254 2.6 4.3 0.00 0.00 0.00 40 992.9
20260504032020 66 278 3.5 5.2 0.00 0.00 0.00 39 993.6
20260504030020 65 196 6.1 8.7 0.00 0.00 0.00 40 992.5
20260504024017 65 193 4.3 7.8 0.00 0.00 0.00 40 993.1
20260504023020 66 172 5.2 7.0 0.00 0.00 0.00 39 993.2
20260504020018 68 179 3.5 6.1 0.00 0.00 0.00 36 994.1
20260504015018 69 177 3.5 6.1 0.00 0.00 0.00 36 994.3
20260504013018 70 211 4.3 7.8 0.00 0.00 0.00 35 995.0
20260504012018 71 250 3.5 7.8 0.00 0.00 0.00 34 995.2
20260504010019 72 227 4.3 7.8 0.00 0.00 0.00 31 995.9
20260504004019 73 231 6.1 9.6 0.00 0.00 0.00 31 996.5
20260504003020 73 246 7.8 10.4 0.00 0.00 0.00 30 996.7
20260504002024 73 236 8.7 12.2 0.00 0.00 0.00 29 996.9
20260504001017 73 240 6.1 10.4 0.00 0.00 0.00 29 997.2
20260504000019 73 236 7.8 12.2 0.00 0.00 0.00 30 997.4
20260503234022 73 239 8.7 11.3 0.00 0.00 0.00 29 997.8
20260503233017 73 249 9.6 12.2 0.00 0.00 0.00 29 998.1
20260503232017 74 251 7.8 12.2 0.00 0.00 0.00 30 998.3
20260503231020 74 237 10.4 17.4 0.00 0.00 0.00 29 998.6
20260503223018 73 238 5.2 7.8 0.00 0.00 0.00 31 999.3
20260503222019 72 249 7.0 10.4 0.00 0.00 0.00 31 999.7
20260503221039 72 233 7.8 13.0 0.00 0.00 0.00 31 999.8
20260503220019 72 239 8.7 13.0 0.00 0.00 0.00 31 1000.3
20260503215040 72 234 6.1 10.4 0.00 0.00 0.00 31 1000.4
20260503212020 72 246 7.8 10.4 0.00 0.00 0.00 32 1001.2
20260503211020 72 215 8.7 11.3 0.00 0.00 0.00 32 1001.4
20260503210020 72 268 6.1 7.8 0.00 0.00 0.00 32 1001.9
20260503205017 72 216 7.0 12.2 0.00 0.00 0.00 32 1002.3
20260503204017 71 238 6.1 9.6 0.00 0.00 0.00 33 1002.5
20260503203045 71 234 7.0 10.4 0.00 0.00 0.00 33 1002.8
20260503195018 69 249 7.0 8.7 0.00 0.00 0.00 33 1003.7
20260503194021 70 255 7.0 8.7 0.00 0.00 0.00 33 1003.9
20260503192018 69 246 8.7 11.3 0.00 0.00 0.00 34 1004.2
20260503191019 68 257 7.0 9.6 0.00 0.00 0.00 36 1004.4
20260503185020 68 272 6.1 8.7 0.00 0.00 0.00 36 1005.2
20260503184019 68 246 4.3 7.8 0.00 0.00 0.00 36 1005.5
20260503183019 67 259 3.5 5.2 0.00 0.00 0.00 36 1005.8
20260503182020 66 241 6.1 9.6 0.00 0.00 0.00 37 1006.1
20260503181020 66 297 5.2 7.8 0.00 0.00 0.00 37 1006.6
20260503180017 65 302 3.5 6.1 0.00 0.00 0.00 38 1006.6
20260503175017 65 277 4.3 6.1 0.00 0.00 0.00 38 1006.9
20260503174020 65 264 5.2 7.8 0.00 0.00 0.00 37 1007.1
20260503131018 45 264 1.7 3.5 0.00 0.00 0.00 55 1010.4
20260503072018 47 10 4.3 8.7 0.00 0.00 0.00 58 1009.1
20260503071039 47 336 5.2 7.8 0.00 0.00 0.00 60 1009.0
20260503054017 52 13 4.3 7.0 0.00 0.00 0.00 62 1008.8
20260503053040 52 8 5.2 7.8 0.00 0.00 0.00 62 1008.7
20260503045018 55 10 5.2 8.7 0.00 0.00 0.00 59 1008.6
20260503043023 55 18 4.3 7.0 0.00 0.00 0.00 58 1008.4
20260503042039 55 23 4.3 7.0 0.00 0.00 0.00 59 1008.4
20260503041018 54 4 3.5 5.2 0.00 0.00 0.00 63 1008.4